STARLINK-31960, 59931

Orbit data source: Space-Track

STARLINK-31960, 59931 is a payload satellite owned by SpaceX/Seattle (US) in LEO that was launched on Sat, 01 Jun 2024 UTC via an FALCON 9 launch vehicle from the Air Force Eastern Test Range (AFETR). Payload-class satellites include a variety of spacecraft equipped with specific instruments for various scientific and technological missions. These include communications satellites like Starlink; space stations such as the ISS; scientific satellites like the Hubble; Earth observation satellites from companies like Planet Labs, Umbra, and HawkEye 360; GPS; miniature CubeSats for education and research; and military/defense satellites.

Loading next visibility...
Identifier
59931, 2024-106K
Orbit
LEO
Country
Flag of USUS
Related business
Manufacturer
SpaceX/Seattle
Mission
Operational spacecraft
Bus & Motor
STARLINK V2M, Unknown motor
Mass
730 kg wet, ~700 kg dry
Launch date (UTC)
2024-06-01 (1 year ago)
Launch vehicle
FALCON 9
Launch site
Air Force Eastern Test Range (AFETR)
Object type
Payload
Rocket body
Debris
Shape & HBR
Unknown
Radar Cross Section
Large (>1 m²)

Expand to show TLE details & history
Last TLE update: 2 days ago

TLE from 2 days ago
0 STARLINK-31960
1 59931U 24106K   25260.33762142 -.00000413  00000-0 -54483-5 0  9992
2 59931  43.0036 231.2821 0002629 262.6365  97.4187 15.27571366 74014
Epoch: 2025-09-17T08:06Z
TLE epoch observation values (Epoch: 2025-09-17T08:06:10.49Z)
Latitude
-0.00009°
Longitude
113.22328°
Altitude
483.084 km
Speed
7.626 km/s
True Right ascension
15h 25m 07s
True Declination
0° 00' 00"
Sunlit
Object was in daylight at epoch
Visualization orbit readout
Latitude
Unknown
Longitude
Unknown
Altitude
Unknown
Speed
Unknown
Apparent Right ascension
Unknown
Apparent Declination
Unknown
Sunlit
N/A
Visualization observer readout
Local Sidereal Time
16:25:04
Azimuth
Unknown
Elevation
Unknown
Doppler factor
Unknown
Orbital elements
Apogee altitude
486.824 km
Perigee altitude
483.215 km
Semi-major axis
6,863.157 km
Eccentricity
0.00026
Inclination
43.0036°
RAAN
231.2821°
Arg. of periapsis
262.6365°
True anomaly
97.44857°
Mean anomaly
97.4187°
Eccentric anomaly
97.43364°
Mean motion
3.81731 °/min
Orbital period
94.31 mins
BSTAR
-0.0000054483
Loading maneuver chart data...
Computing Atmospheric mass density...
Loading historical data...
Loading historical data...
Loading historical data...
Loading historical data...
Loading historical data...
Loading historical data...
Loading historical data...

Documentation

Showing up to 5 results
|